COSMOS 249 DEB *, 3908

Orbit data source: Space-Track

COSMOS 249 DEB *, 3908 is space debris in LEO originally from a launch on Sun, 20 Oct 1968 UTC launched from the Tyuratam Missile And Space Complex (TTMTR). Debris objects in space refer to the collection of defunct objects orbiting the Earth. Examples of debris include non-operational satellites, rocket bodies, and fragments generated from explosions, collisions, or faulty payload assembly.

Loading next visibility...
Identifier
3908, 1968-091BL
Orbit
LEO
Country
Flag of CISCIS
Related business
Manufacturer
Unknown
Mission
Spacecraft
Bus & Motor
Unknown
Mass
Unknown
Launch date (UTC)
1968-10-20 (58 years ago)
Launch vehicle
Unknown
Launch site
Tyuratam Missile And Space Complex (TTMTR)
Object type
Payload
Rocket body
Debris
Shape & HBR
Unknown shape, 0.1 m
Radar Cross Section
Medium (>0.1 m² and <1 m²)

Expand to show TLE details & history
Last TLE update: 9 hours ago

TLE from 9 hours ago
0 COSMOS 249 DEB *
1  3908U 68091BL  26220.05160309  .00000646  00000-0  50027-3 0  9993
2  3908  63.3377 197.6477 0601000  33.6013  26.3931 13.36581336788427
Epoch: 2026-08-08T01:14Z
TLE epoch observation values (Epoch: 2026-08-08T01:14:18.506Z)
Latitude
53.08646°
Longitude
-95.8298°
Altitude
731.592 km
Speed
7.691 km/s
True Right ascension
15h 57m 15s
True Declination
52° 55' 14"
Sunlit
Object was in daylight at epoch
Visualization orbit readout
Latitude
Unknown
Longitude
Unknown
Altitude
Unknown
Speed
Unknown
Apparent Right ascension
Unknown
Apparent Declination
Unknown
Sunlit
N/A
Visualization observer readout
Local Sidereal Time
00:41:08
Azimuth
Unknown
Elevation
Unknown
Doppler factor
Unknown
Orbital elements
Apogee altitude
1,571.568 km
Perigee altitude
670.186 km
Semi-major axis
7,499.014 km
Eccentricity
0.0601
Inclination
63.3377°
RAAN
197.6477°
Arg. of periapsis
33.6013°
True anomaly
29.67292°
Mean anomaly
26.3931°
Eccentric anomaly
28.01026°
Mean motion
3.34223 °/min
Orbital period
107.71 mins
BSTAR
0.00050027
Loading maneuver chart data...
Computing Atmospheric mass density...

Documentation

Showing up to 5 results
|